Weather in Shcherbino

Russia / Pskov Oblast     56°07′32″N   29°57′38″E
temp.,
°C
wind,
m/s
gust,
m/s
humid.,
%
clouds,
%
prec.,
mm/h
press.,
hPa
HPBL,
m
11 april, sun
sun1100:00+5wsw129098 0.1 102178
03:00+4ne1192100 0.1 102310
06:00+4ene129297 0.1 102350
09:00+6ese139198 0.1 1025194
12:00+7se2494100 0.5 1025258
15:00+7ene2395100 1.1 1026124
18:00+9ene1185100 0.1 102615
21:00+8se248797 0.1 102758
12 april, mon
mon1200:00+7s312885 0.0 1028209
03:00+6sse311875 0.0 1028180
06:00+5sse3108757 0.0 1028195
09:00+9sse4117151 0.0 1028383
12:00+14sse58500 0.0 10271100
15:00+15sse57410 0.0 10251481
18:00+15sse484662 0.0 10231328
21:00+9sse31066100 0.0 1023274
13 april, tue
tue1300:00+7sse31080100 0.0 1023321
03:00+6sse289649 0.0 1022202
06:00+5sse259823 0.0 1022105
09:00+9s35800 0.0 1021281
12:00+15s234950 0.0 1021909
15:00+17ssw23395 0.0 10201640
18:00+16s234841 0.0 1019700
21:00+11wnw1286100 0.3 102089
14 april, wed
wed1400:00+7n4890100 1.1 1019338
03:00+6n4793100 3.4 1019317
06:00+5n41094100 0.7 1018404
09:00+4nne51093100 2.9 1019444
12:00+4n4994100 0.5 1019447
15:00+4nne4794100 0.8 1020425
18:00+3nne4996100 0.3 1020367
21:00+3nne4997100 0.3 1020375
15 april, thu
thu1500:00+3nne41097100 0.0 1020397
03:00+3nne41196100 0.0 1019458
06:00+2nne51293100 0.4 1019456
09:00+2nne61394100 2.7 1018473
12:00+2nne61394100 1.6 1019551
15:00+3nne61495100 2.6 1019595
18:00+2nne61397100 0.6 1020642
21:00+3nne61397100 1.2 1021662